Weather reports worldwide

Advertisment
Foggia Amendola, Italy (16261): temperature & dewpoint: 14.01.2021 14:00:00 - 20.01.2021 14:00:00 (CET)Foggia Amendola, Italy (16261): wind speed: 14.01.2021 14:00:00 - 20.01.2021 14:00:00 (CET)Foggia Amendola, Italy (16261): wind direction: 14.01.2021 14:00:00 - 20.01.2021 14:00:00 (CET)Foggia Amendola, Italy (16261): reduced air pressure: 14.01.2021 14:00:00 - 20.01.2021 14:00:00 (CET)Foggia Amendola, Italy (16261): visibility: 14.01.2021 14:00:00 - 20.01.2021 14:00:00 (CET)Foggia Amendola, Italy (16261): sunshine duration: 14.01.2021 14:00:00 - 20.01.2021 14:00:00 (CET)
Date & Time tt [°C] td [°C] ff [km/h] ff [kn] dd ppp [hPa] vv [km] sd [min]
20.01.2021 14:00:00 - - - - - - - -
20.01.2021 13:00:00 15,0 5,3 22 12 SW 1023,4 30 59
20.01.2021 12:00:00 13,0 8,0 8 4 ENE - 10 -
20.01.2021 11:00:00 12,0 7,0 8 4 E - 10 -
20.01.2021 10:00:00 7,7 4,9 8 4 ESE 1026,0 20 60
20.01.2021 09:00:00 7,0 5,0 4 2 SSE - 10 -
20.01.2021 08:00:00 3,0 1,0 4 2 NE - 10 -
20.01.2021 07:00:00 4,4 2,7 8 4 SE 1025,2 12 0
20.01.2021 06:00:00 4,0 3,0 9 5 SE - 10 -
20.01.2021 05:00:00 3,0 1,0 8 4 E - 10 -
20.01.2021 04:00:00 3,8 1,0 5 3 ENE 1025,2 12 0
20.01.2021 03:00:00 3,0 1,0 5 3 E - 10 -
20.01.2021 02:00:00 4,0 1,0 8 4 SE - 10 -
20.01.2021 01:00:00 3,2 0,5 5 3 NE 1025,8 12 0
20.01.2021 00:00:00 3,0 0,0 8 4 NNE - 10 -
19.01.2021 23:00:00 3,0 0,0 5 3 NNE - 10 -
19.01.2021 22:00:00 4,6 1,7 5 3 SE 1026,6 12 0
19.01.2021 21:00:00 5,0 1,0 4 2 ENE - 10 -
19.01.2021 20:00:00 5,0 1,0 8 4 E - 10 -
19.01.2021 19:00:00 5,8 0,6 5 3 S 1026,4 12 0
19.01.2021 18:00:00 8,0 0,0 2 1 - - 10 -
19.01.2021 17:00:00 11,0 0,0 2 1 SW - 10 -
19.01.2021 16:00:00 12,2 -0,2 4 2 W 1025,5 20 60
19.01.2021 15:00:00 12,0 -1,0 8 4 W - 10 -
19.01.2021 14:00:00 11,0 -1,0 9 5 WNW - 10 -
19.01.2021 13:00:00 10,5 -0,6 4 2 N 1026,2 20 60
19.01.2021 12:00:00 10,0 1,0 4 2 SW - 10 -
19.01.2021 11:00:00 8,0 2,0 4 2 S - 10 -
19.01.2021 10:00:00 6,7 1,4 5 3 ESE 1027,6 20 60
19.01.2021 09:00:00 4,0 2,0 2 1 - - 10 -
19.01.2021 08:00:00 2,0 0,0 5 3 NNW - 10 -
19.01.2021 07:00:00 0,1 -1,4 9 5 WNW 1027,3 10 0
19.01.2021 06:00:00 0,0 -2,0 5 3 N - 10 -
19.01.2021 05:00:00 1,0 -1,0 11 6 WSW - 10 -
19.01.2021 04:00:00 2,0 -0,3 11 6 SW 1026,6 10 0
19.01.2021 03:00:00 3,0 1,0 4 2 SSE - 10 -
19.01.2021 02:00:00 1,0 0,0 4 2 S - 10 -
19.01.2021 01:00:00 1,2 -0,6 4 2 N 1026,1 10 0
19.01.2021 00:00:00 3,0 1,0 15 8 W - 10 -
18.01.2021 23:00:00 3,0 1,0 15 8 WNW - 10 -
18.01.2021 22:00:00 2,3 0,8 13 7 WNW 1025,8 10 0
18.01.2021 21:00:00 3,0 1,0 13 7 W - 10 -
18.01.2021 20:00:00 4,0 1,0 13 7 W - 10 -
18.01.2021 19:00:00 4,6 1,0 11 6 W 1024,7 10 0
18.01.2021 18:00:00 4,0 0,0 9 5 WNW - 10 -
18.01.2021 17:00:00 6,0 0,0 13 7 NW - 10 -
18.01.2021 16:00:00 6,9 -0,2 18 10 WNW 1023,1 15 22
18.01.2021 15:00:00 7,0 0,0 21 11 NW - 10 -
18.01.2021 14:00:00 7,0 -1,0 18 10 NW - 10 -
18.01.2021 13:00:00 6,6 -1,3 24 13 NNW 1022,7 15 56
18.01.2021 12:00:00 7,0 -2,0 18 10 NW - 10 -
18.01.2021 11:00:00 6,0 -3,0 24 13 NNW - 10 -
18.01.2021 10:00:00 4,9 0,5 13 7 WNW 1022,9 15 46
18.01.2021 09:00:00 3,0 0,0 11 6 W - 10 -
18.01.2021 08:00:00 1,0 -1,0 13 7 NW - 10 -
18.01.2021 07:00:00 0,8 0,6 16 9 WNW 1021,0 10 0
18.01.2021 06:00:00 1,0 1,0 13 7 WNW - 10 -
18.01.2021 05:00:00 1,0 1,0 13 7 WNW - 10 -
18.01.2021 04:00:00 1,9 1,4 11 6 W 1019,2 12 0
18.01.2021 03:00:00 2,0 1,0 11 6 W - 10 -
18.01.2021 02:00:00 2,0 1,0 5 3 S - 10 -
18.01.2021 01:00:00 2,2 1,0 8 4 NE 1017,3 12 0
18.01.2021 00:00:00 1,0 0,0 11 6 WNW - 10 -
17.01.2021 23:00:00 1,0 0,0 11 6 WNW - 10 -
17.01.2021 22:00:00 1,6 0,5 5 3 WSW 1015,7 12 0
17.01.2021 21:00:00 3,0 -1,0 9 5 WNW - 10 -
17.01.2021 20:00:00 3,0 -1,0 4 2 W - 10 -
17.01.2021 19:00:00 3,5 -0,4 4 2 W 1015,0 15 0
17.01.2021 18:00:00 4,0 0,0 5 3 NW - 10 -
17.01.2021 17:00:00 5,0 0,0 5 3 WSW - 10 -
17.01.2021 16:00:00 5,1 -0,3 2 1 NE 1014,3 15 0
17.01.2021 15:00:00 5,0 -1,0 9 5 E - 10 -
17.01.2021 14:00:00 5,0 -1,0 9 5 E - 10 -
17.01.2021 13:00:00 4,5 -1,7 13 7 E 1015,0 20 0
17.01.2021 12:00:00 3,0 -1,0 8 4 ENE - 10 -
17.01.2021 11:00:00 2,0 -2,0 9 5 ENE - 10 -
17.01.2021 10:00:00 1,4 -1,1 5 3 E 1018,0 20 2
17.01.2021 09:00:00 0,0 -2,0 8 4 ENE - 10 -
17.01.2021 08:00:00 0,0 -2,0 4 2 SSE - 10 -
17.01.2021 07:00:00 -1,7 -3,8 4 2 N 1018,3 50 0
17.01.2021 06:00:00 -2,0 -3,0 2 1 - - 10 -
17.01.2021 05:00:00 -1,0 -3,0 4 2 W - 10 -
17.01.2021 04:00:00 -1,2 -2,9 9 5 WNW 1019,6 40 0
17.01.2021 03:00:00 0,0 -3,0 13 7 W - 10 -
17.01.2021 02:00:00 -1,0 -3,0 11 6 W - 10 -
17.01.2021 01:00:00 -0,6 -2,3 9 5 WNW 1020,6 40 0
17.01.2021 00:00:00 0,0 -2,0 9 5 W - 10 -
16.01.2021 23:00:00 0,0 -2,0 9 5 W - 10 -
16.01.2021 22:00:00 1,3 -1,1 15 8 WNW 1020,9 30 0
16.01.2021 21:00:00 2,0 0,0 21 11 W - 10 -
16.01.2021 20:00:00 2,0 0,0 16 9 W - 10 -
16.01.2021 19:00:00 2,8 -1,8 13 7 W 1019,8 40 0
16.01.2021 18:00:00 4,0 -4,0 8 4 NW - 10 -
16.01.2021 17:00:00 5,0 -5,0 13 7 NW - 10 -
16.01.2021 16:00:00 5,6 -5,1 22 12 N 1018,2 40 3
16.01.2021 15:00:00 6,0 -3,0 22 12 NNW - 10 -
16.01.2021 14:00:00 7,0 -3,0 16 9 NNW - 10 -
16.01.2021 13:00:00 6,9 -1,3 22 12 N 1017,9 30 29
16.01.2021 12:00:00 6,0 0,0 11 6 N - 10 -
16.01.2021 11:00:00 6,0 -1,0 18 10 NNW - 10 -
16.01.2021 10:00:00 6,3 -2,2 16 9 NNW 1018,0 20 31
16.01.2021 09:00:00 4,0 -2,0 11 6 N - 10 -
16.01.2021 08:00:00 5,0 -3,0 18 10 N - 10 -
16.01.2021 07:00:00 5,2 -0,8 15 8 N 1016,6 20 0
16.01.2021 06:00:00 4,0 0,0 11 6 WNW - 10 -
16.01.2021 05:00:00 4,0 1,0 5 3 NW - 10 -
16.01.2021 04:00:00 3,6 2,0 11 6 WNW 1015,3 15 0
16.01.2021 03:00:00 3,0 2,0 9 5 W - 10 -
16.01.2021 02:00:00 4,0 2,0 11 6 W - 10 -
16.01.2021 01:00:00 3,8 2,1 13 7 W 1015,1 15 0
16.01.2021 00:00:00 5,0 3,0 8 4 WNW - 10 -
15.01.2021 23:00:00 5,0 3,0 11 6 NW - 10 -
15.01.2021 22:00:00 4,5 2,8 9 5 WNW 1014,9 15 0
15.01.2021 21:00:00 5,0 3,0 8 4 NW - 10 -
15.01.2021 20:00:00 6,0 3,0 8 4 WNW - 10 -
15.01.2021 19:00:00 5,7 1,4 5 3 NNE 1014,3 20 0
15.01.2021 18:00:00 6,0 1,0 5 3 ENE - 10 -
15.01.2021 17:00:00 7,0 1,0 8 4 ENE - 10 -
15.01.2021 16:00:00 7,0 2,0 8 4 E 1013,7 20 0
15.01.2021 15:00:00 7,0 2,0 11 6 E - 10 -
15.01.2021 14:00:00 8,0 1,0 15 8 E - 10 -
15.01.2021 13:00:00 9,1 1,8 13 7 E 1013,5 20 52
15.01.2021 12:00:00 8,0 3,0 9 5 ESE - 10 -
15.01.2021 11:00:00 7,0 3,0 8 4 SE - 10 -
15.01.2021 10:00:00 7,8 2,2 5 3 ESE 1015,4 20 60
15.01.2021 09:00:00 5,0 2,0 5 3 S - 10 -
15.01.2021 08:00:00 4,0 0,0 9 5 ENE - 10 -
15.01.2021 07:00:00 2,5 -0,5 9 5 NE 1014,5 12 0
15.01.2021 06:00:00 3,0 0,0 11 6 NE - 10 -
15.01.2021 05:00:00 4,0 3,0 5 3 N - 9 -
15.01.2021 04:00:00 4,5 4,2 8 4 NNE 1014,6 9 0
15.01.2021 03:00:00 5,0 4,0 5 3 NNE - 9 -
15.01.2021 02:00:00 6,0 5,0 9 5 NNW - 9 -
15.01.2021 01:00:00 6,3 5,4 11 6 W 1014,9 9 0
15.01.2021 00:00:00 7,0 5,0 5 3 WSW - 10 -
14.01.2021 23:00:00 7,0 5,0 4 2 SE - 10 -
14.01.2021 22:00:00 7,1 5,3 8 4 E 1013,6 12 0
14.01.2021 21:00:00 7,0 5,0 22 12 ENE - 10 -
14.01.2021 20:00:00 9,0 7,0 21 11 WNW - 10 -
14.01.2021 19:00:00 10,0 5,8 16 9 W 1010,0 12 0
14.01.2021 18:00:00 10,0 4,0 9 5 NNW - 10 -
14.01.2021 17:00:00 12,0 2,0 15 8 N - 10 -
14.01.2021 16:00:00 15,4 6,1 8 4 WNW 1007,3 20 60
14.01.2021 15:00:00 15,0 8,0 22 12 WSW - 10 -
14.01.2021 14:00:00 16,0 8,0 26 14 SW - 10 -

tt = temperature
td = dewpoint
ff = wind speed
dd = wind direction
ppp = reduced air pressure
vv = visibility
sd = sunshine duration

Next stations